SCP
-0 -0 -0 -0 -0 -0 -0 -0 -0 -0 0 0 0 0 0 0 0 0 0 0 0 0 0 0 0 0 0 0 0 0 0 0 0 0 -0 -0 -0 0 0 0 0 0 0
-0 -0 -0 -0 -0 -0 -0 -0 -0 -0 -0 -0 0 0 0 0 0 0 0 0 0 0 0 0 0 0 0 0 0 0 0 0 0 0 0 0 0 0 0 0 0 0 0
0 -0 -0 -0 -0 -0 -0 -0 -0 -0 -0 0 0 0 0 0 0 0 0 0 0 0 0 0 0 0 0 0 0 0 0 0 0 0 0 0 0 0 0 0 0 0 0
0 0 0 -0 -0 -0 -0 -0 -0 -0 -0 -0 0 0 0 0 0 0 0 0 0 0 0 0 0 0 0 0 0 0 0 0 0 0 0 0 0 0 0 0 0 0 0
0 0 0 -0 -0 -0 -0 -0 -0 -0 0 0 0 0 0 0 0 0 0 0 0 0 0 0 0 0 0 0 0 0 0 0 0 0 0 0 0 0 0 0 0 0 0
0 0 0 0 0 0 0 0 0 0 0 0 0 0 0 0 0 0 0 0 0 0 0 0 0 0 0 0 0 0 0 0 0 0 0 0 0 0 -0 0 0 0 0
0 0 0 0 0 0 0 0 0 0 0 0 0 0 0 0 0 0 0 0 0 0 0 0 0 0 0 0 0 0 0 0 0 0 0 0 0 0 -0 -0 0 0 0
0 0 0 0 0 0 0 0 0 0 0 0 0 0 0 0 0 0 0 0 0 0 0 0 0 0 0 0 0 0 0 0 0 0 0 0 0 0 0 -0 0 0 0
0 0 0 0 0 0 0 0 0 0 0 0 0 0 0 0 0 0 0 0 0 0 0 0 0 0 0 0 0 0 0 0 0 0 0 0 0 0 -0 0 0 0 0
0 0 0 0 0 0 0 0 0 0 0 0 0 0 0 0 0 0 0 0 0 0 0 0 0 0 0 0 0 0 0 0 0 0 0 0 0 0 0 0 0 0 0
0 0 0 0 0 0 0 0 0 0 0 0 0 0 0 0 0 0 0 0 0 0 0 0 0 0 0 0 0 0 0 0 0 0 0 0 0 0 0 0 0 0 0
0 0 0 0 0 0 0 0 0 0 0 0 0 0 0 0 0 0 0 0 0 0 0 0 0 0 0 0 0 0 0 0 0 0 0 0 0 0 0 0 0 0 0
0 0 0 0 0 0 0 0 0 0 0 0 0 0 0 0 0 0 0 0 0 0 0 0 0 0 0 0 0 0 0 0 0 0 0 0 0 0 0 0 0 0 0
0 0 0 0 0 0 0 0 0 0 0 0 0 0 0 0 0 0 0 0 0 0 0 0 0 0 0 0 0 0 0 0 0 0 0 0 0 0 0 0 0 0 0
0 0 0 0 0 0 0 0 0 0 0 0 0 0 0 0 0 0 0 0 0 0 0 0 0 0 0 0 0 0 0 0 0 0 0 0 0 0 0 0 0 0 0
0 0 0 0 0 0 0 0 0 0 0 0 0 0 0 0 0 0 0 0 0 0 0 0 0 0 0 0 0 0 0 0 0 0 0 0 0 0 0 0 0 0 0
0 0 0 0 0 0 0 0 0 0 0 0 0 0 0 0 0 0 0 0 0 0 0 0 0 0 0 0 0 0 0 0 0 0 0 0 0 0 0 0 0 0 0
0 0 0 0 0 0 0 0 0 0 0 0 0 0 0 0 0 0 0 0 0 0 0 0 0 0 0 0 0 0 0 0 0 0 0 0 0 0 0 0 0 0 0
0 0 0 0 0 0 0 0 0 0 0 0 0 0 0 0 0 0 0 0 0 0 0 0 0 0 0 0 0 0 0 0 0 0 0 0 0 0 0 0 0 0 0
0 0 0 0 0 0 0 0 0 0 0 0 0 0 0 0 0 0 0 0 0 0 0 0 0 0 -0 0 0 0 0 0 0 0 0 0 0 0 0 0 0 0 0
0 0 0 0 0 0 0 0 0 0 0 0 0 0 0 0 0 0 0 0 0 -0 -0 -0 -0 0 0 0 0 0 0 0 0 0 0 0 0 0 0 0 0 0 0
0 0 0 0 0 0 0 0 -0 -0 -0 -0 0 0 0 0 0 0 0 0 0 -0 -0 -0 -0 -0 -0 -0 -0 -0 -0 0 0 0 0 0 0 0 0 0 0 0 0
0 0 0 0 0 0 0 0 -0 -0 -0 -0 0 0 0 0 0 0 0 0 -0 -0 -0 -0 -0 -0 -0 -0 -0 -0 -0 -0 -0 -0 0 0 0 0 0 0 0 0 0
0 0 0 0 0 0 0 0 0 -0 -0 -0 -0 -0 -0 0 0 0 0 0 0 0 0 0 0 -0 -0 -0 -0 -0 -0 -0 -0 -0 -0 -0 0 0 0 0 0 0 0
0 0 0 0 0 0 0 0 0 0 -0 -0 -0 0 0 0 0 0 0 0 0 0 0 0 0 0 -0 -0 -0 -0 -0 -0 -0 -0 -0 0 -0 0 0 0 0 0 0
0 0 0 0 0 0 0 0 0 -0 -0 -0 0 0 0 0 0 0 0 0 0 0 0 0 0 0 0 0 0 0 -0 -0 -0 -0 -0 0 0 -0 -0 -0 0 0 0
Wind_Speed_500mb
23 20 18 11 9 8 6 7 7 9 7 5 6 6 6 6 4 3 5 6 7 5 5 10 11 12 12 11 14 19 20 20 18 17 14 14 13 7 11 8 8 6 6
21 20 13 8 5 5 3 2 3 5 5 5 4 7 5 5 8 8 8 9 9 9 8 11 14 14 13 12 10 16 19 18 17 15 12 8 8 5 2 3 4 6 6
14 15 17 9 5 7 8 7 5 4 2 2 3 6 8 9 7 9 12 13 15 15 14 14 15 17 14 13 11 13 17 17 16 14 11 9 5 8 10 10 11 11 9
12 12 10 10 10 11 14 10 8 8 10 9 6 6 4 4 10 12 12 13 13 17 18 17 16 16 17 12 12 13 16 18 16 16 12 10 9 10 12 11 11 11 9
13 11 10 9 9 12 13 16 16 11 12 16 14 12 12 11 11 10 11 15 15 15 16 16 17 16 13 16 13 15 18 20 18 19 18 16 15 14 14 14 16 16 13
14 16 14 13 14 15 15 15 16 17 19 19 19 20 20 20 21 20 22 20 15 16 19 17 17 16 15 15 17 20 21 24 22 23 23 21 19 19 17 20 22 23 16
14 17 19 20 21 22 22 21 20 20 21 23 25 27 27 26 27 26 26 28 28 26 20 15 20 21 20 17 20 24 27 27 29 27 28 28 25 22 22 21 24 25 22
16 18 20 23 25 28 29 29 29 28 27 28 30 30 33 31 30 31 31 33 34 33 31 28 24 22 25 25 27 31 33 33 34 32 31 34 31 28 26 23 22 31 30
14 17 19 22 24 26 29 31 31 32 32 31 30 33 34 37 37 36 34 37 43 38 37 33 33 34 30 27 30 31 34 35 38 39 36 37 36 35 32 29 26 33 35
16 19 21 22 23 25 27 30 31 32 32 32 32 31 33 34 35 39 39 37 38 39 41 38 36 36 37 38 36 36 39 41 44 46 45 41 39 39 38 37 34 33 35
14 17 19 21 22 22 23 24 26 28 29 29 30 31 31 34 36 38 39 40 39 39 37 37 39 39 39 41 42 40 40 46 50 52 49 43 42 42 41 41 40 37 39
11 14 19 20 20 21 20 19 18 19 21 23 25 26 26 29 30 33 37 40 41 43 40 39 37 37 39 45 49 45 43 44 47 51 52 48 45 46 46 46 45 43 43
16 16 16 18 20 21 21 22 19 17 15 15 16 19 21 22 24 26 29 33 38 43 45 46 46 46 45 48 44 43 47 43 45 51 51 46 47 48 51 51 51 50 49
13 16 18 19 20 22 24 24 25 24 25 22 21 18 16 16 18 20 21 24 25 28 35 44 46 44 42 45 48 53 52 47 51 47 51 49 47 51 52 52 54 57 57
7 12 16 19 21 24 25 27 28 30 31 33 30 30 28 26 24 24 22 22 24 25 27 29 33 40 44 41 42 41 50 53 57 55 57 55 49 48 55 61 61 60 63
14 14 16 17 21 23 25 28 30 31 33 33 34 37 37 36 35 34 31 28 26 26 27 29 33 35 37 43 46 42 43 39 44 52 59 63 58 55 53 58 68 72 73
18 21 19 21 23 23 26 28 29 32 31 32 35 35 37 37 37 37 37 37 36 36 33 30 28 29 32 37 43 46 48 47 44 41 36 42 58 64 57 65 63 72 78
20 20 23 25 24 26 28 30 31 32 33 35 36 38 39 39 39 39 38 39 38 38 38 38 38 36 34 35 34 35 40 43 42 42 48 47 53 47 51 53 54 65 70
18 20 20 21 21 24 25 28 30 30 31 34 34 37 39 40 41 42 43 44 44 44 44 44 44 45 42 39 39 36 31 27 25 25 29 30 30 34 38 43 49 60 72
17 17 18 18 19 20 21 24 26 27 31 32 35 36 36 37 38 39 41 42 43 45 47 48 50 52 55 56 44 33 27 21 12 16 19 20 27 33 38 36 39 44 52
15 15 14 15 17 18 18 19 23 29 31 32 35 35 36 38 39 41 43 45 48 50 53 52 52 53 52 54 55 49 26 21 12 46 23 31 34 37 40 43 45 50 52
17 15 13 13 15 16 19 24 27 28 30 31 33 33 36 38 39 41 42 45 47 49 52 55 58 60 64 68 65 43 33 24 56 19 47 40 51 49 47 46 48 53 59
20 17 14 12 13 15 19 23 25 25 25 27 31 34 37 37 37 39 41 43 46 48 52 55 57 60 62 61 61 47 24 23 69 30 39 62 65 61 61 58 56 53 53
24 20 15 11 11 12 14 17 21 26 30 33 34 34 33 34 36 38 40 42 44 46 47 50 50 51 51 55 52 48 30 31 26 42 62 58 72 70 70 69 64 63 61
27 23 18 13 10 9 11 15 21 25 28 28 29 30 32 34 36 38 39 41 43 45 47 47 47 47 46 45 47 46 42 40 19 34 58 94 84 81 74 64 73 75 67
33 28 22 17 12 7 7 11 17 22 24 25 26 28 30 33 35 38 40 42 44 45 47 48 47 45 44 42 41 40 42 41 42 31 53 82 91 87 80 77 75 65 80
Wind_Direction_500mb
22 39 45 74 55 27 48 86 107 110 90 39 15 15 10 5 353 310 285 304 310 309 302 297 290 318 323 342 359 10 16 19 22 30 43 63 64 42 43 45 61 71 33
7 14 38 55 9 330 344 347 115 116 109 76 31 343 341 328 311 303 291 283 284 286 286 312 301 295 308 316 344 1 6 10 11 17 28 53 80 130 37 329 18 342 343
354 352 360 28 2 329 330 295 246 223 184 292 23 9 318 308 294 286 286 284 282 280 279 288 307 288 291 296 312 341 354 358 355 355 4 6 337 290 294 298 311 320 312
10 4 344 331 338 320 302 281 305 294 249 235 252 290 291 299 322 309 295 283 281 283 280 276 291 313 283 268 283 305 334 341 339 329 331 332 332 318 303 297 307 316 310
344 350 352 350 326 329 326 320 274 279 303 295 262 267 270 274 275 268 288 306 300 284 281 277 276 291 293 284 267 279 308 318 322 313 306 310 316 318 311 300 303 313 307
329 330 332 328 322 320 324 317 308 275 269 281 291 286 275 266 258 270 279 276 270 286 290 282 271 274 283 278 267 272 291 302 305 305 292 292 301 308 303 298 296 307 301
324 322 319 314 311 308 306 301 297 292 279 265 274 281 282 280 275 268 270 274 277 275 272 271 288 279 265 266 266 272 282 290 294 299 289 283 288 294 299 300 294 296 302
332 325 320 315 308 303 300 299 296 291 286 279 271 266 271 275 279 278 278 276 276 274 274 271 261 268 280 272 267 272 278 284 284 288 289 278 279 283 289 291 288 288 294
339 331 322 317 311 303 297 294 291 289 285 281 278 271 270 267 273 276 279 282 276 276 273 270 266 264 261 265 269 272 277 281 284 284 284 279 272 276 278 283 281 278 285
344 344 341 333 324 313 304 296 290 285 283 283 279 275 269 270 272 274 275 280 283 282 272 267 270 272 269 265 261 262 268 273 275 280 281 284 272 268 274 276 279 281 284
337 339 344 340 334 330 318 308 298 290 286 283 282 280 276 269 267 271 277 278 282 285 285 283 273 267 271 270 269 267 266 268 271 274 277 282 278 267 269 273 276 277 277
351 350 350 353 355 354 352 342 324 311 299 291 287 287 287 283 280 270 270 271 278 281 282 282 279 277 281 276 271 270 268 273 273 275 277 277 277 269 267 269 272 273 275
13 12 9 6 7 8 12 16 12 5 354 340 322 305 300 297 293 288 284 282 279 269 276 277 279 279 280 276 280 284 276 275 281 280 279 277 272 270 267 269 271 273 271
14 20 26 28 26 27 27 27 30 32 32 27 20 8 355 333 315 305 302 299 297 288 279 274 272 278 281 283 280 274 277 277 276 280 283 284 278 269 266 268 273 275 274
38 38 36 40 40 42 41 42 42 42 40 40 37 34 30 24 14 5 352 335 320 313 302 297 288 279 275 278 281 286 279 276 276 276 278 280 277 277 271 268 268 272 276
81 74 60 55 49 44 44 44 45 46 43 41 40 39 36 34 31 27 22 15 6 357 343 325 309 300 294 286 281 281 277 286 282 279 280 276 275 274 274 269 267 270 272
94 84 82 75 65 57 53 49 48 46 43 42 40 38 35 32 31 28 27 25 23 18 11 0 348 334 314 299 294 291 286 280 278 279 287 288 286 288 282 269 269 268 269
97 93 83 77 72 66 62 57 54 51 48 47 44 41 37 33 31 28 27 24 21 15 13 7 2 358 352 342 330 313 301 293 284 282 278 281 288 294 299 294 289 273 277
111 95 86 79 74 67 61 58 56 54 53 51 49 45 42 37 34 30 29 26 21 17 12 10 5 359 356 355 354 347 334 317 297 286 280 280 269 278 277 278 285 289 290
127 114 101 90 80 72 63 57 52 47 48 46 46 45 42 39 36 33 31 27 24 22 20 18 13 9 2 357 355 355 355 349 326 343 321 304 287 282 278 288 282 281 284
140 124 110 98 89 81 74 65 54 43 40 37 38 35 33 32 29 28 26 25 23 22 23 23 21 17 10 6 360 2 17 10 68 335 323 331 319 314 306 302 296 297 289
161 148 131 109 88 74 61 52 46 39 35 32 32 29 28 25 22 21 20 19 18 17 17 16 17 18 18 14 16 9 354 4 338 344 345 345 339 338 330 322 315 305 298
177 167 149 125 99 74 58 49 42 39 37 33 29 25 24 20 18 17 16 16 15 14 14 14 14 12 15 17 18 26 2 338 337 335 349 345 346 342 340 338 334 328 321
187 179 167 144 114 85 65 48 37 31 26 25 23 20 16 13 13 14 14 14 14 14 13 13 12 11 9 11 13 16 18 356 338 321 324 340 344 345 344 341 338 337 335
196 190 181 166 143 105 64 40 30 26 24 21 18 15 11 10 10 10 10 11 11 11 12 11 10 11 10 9 9 5 3 3 347 325 323 331 335 342 344 342 344 339 339
200 196 190 183 169 141 73 38 27 20 16 13 9 8 8 6 5 6 6 6 6 5 6 7 7 6 5 6 4 3 2 357 344 332 318 328 329 334 340 341 345 341 340
Wind_Speed_850mb
23 20 18 11 9 8 6 7 7 9 7 5 6 6 6 6 4 3 5 6 7 5 5 10 11 12 12 11 14 19 20 20 18 17 14 14 13 7 11 8 8 6 6
21 20 13 8 5 5 3 2 3 5 5 5 4 7 5 5 8 8 8 9 9 9 8 11 14 14 13 12 10 16 19 18 17 15 12 8 8 5 2 3 4 6 6
14 15 17 9 5 7 8 7 5 4 2 2 3 6 8 9 7 9 12 13 15 15 14 14 15 17 14 13 11 13 17 17 16 14 11 9 5 8 10 10 11 11 9
12 12 10 10 10 11 14 10 8 8 10 9 6 6 4 4 10 12 12 13 13 17 18 17 16 16 17 12 12 13 16 18 16 16 12 10 9 10 12 11 11 11 9
13 11 10 9 9 12 13 16 16 11 12 16 14 12 12 11 11 10 11 15 15 15 16 16 17 16 13 16 13 15 18 20 18 19 18 16 15 14 14 14 16 16 13
14 16 14 13 14 15 15 15 16 17 19 19 19 20 20 20 21 20 22 20 15 16 19 17 17 16 15 15 17 20 21 24 22 23 23 21 19 19 17 20 22 23 16
14 17 19 20 21 22 22 21 20 20 21 23 25 27 27 26 27 26 26 28 28 26 20 15 20 21 20 17 20 24 27 27 29 27 28 28 25 22 22 21 24 25 22
16 18 20 23 25 28 29 29 29 28 27 28 30 30 33 31 30 31 31 33 34 33 31 28 24 22 25 25 27 31 33 33 34 32 31 34 31 28 26 23 22 31 30
14 17 19 22 24 26 29 31 31 32 32 31 30 33 34 37 37 36 34 37 43 38 37 33 33 34 30 27 30 31 34 35 38 39 36 37 36 35 32 29 26 33 35
16 19 21 22 23 25 27 30 31 32 32 32 32 31 33 34 35 39 39 37 38 39 41 38 36 36 37 38 36 36 39 41 44 46 45 41 39 39 38 37 34 33 35
14 17 19 21 22 22 23 24 26 28 29 29 30 31 31 34 36 38 39 40 39 39 37 37 39 39 39 41 42 40 40 46 50 52 49 43 42 42 41 41 40 37 39
11 14 19 20 20 21 20 19 18 19 21 23 25 26 26 29 30 33 37 40 41 43 40 39 37 37 39 45 49 45 43 44 47 51 52 48 45 46 46 46 45 43 43
16 16 16 18 20 21 21 22 19 17 15 15 16 19 21 22 24 26 29 33 38 43 45 46 46 46 45 48 44 43 47 43 45 51 51 46 47 48 51 51 51 50 49
13 16 18 19 20 22 24 24 25 24 25 22 21 18 16 16 18 20 21 24 25 28 35 44 46 44 42 45 48 53 52 47 51 47 51 49 47 51 52 52 54 57 57
7 12 16 19 21 24 25 27 28 30 31 33 30 30 28 26 24 24 22 22 24 25 27 29 33 40 44 41 42 41 50 53 57 55 57 55 49 48 55 61 61 60 63
14 14 16 17 21 23 25 28 30 31 33 33 34 37 37 36 35 34 31 28 26 26 27 29 33 35 37 43 46 42 43 39 44 52 59 63 58 55 53 58 68 72 73
18 21 19 21 23 23 26 28 29 32 31 32 35 35 37 37 37 37 37 37 36 36 33 30 28 29 32 37 43 46 48 47 44 41 36 42 58 64 57 65 63 72 78
20 20 23 25 24 26 28 30 31 32 33 35 36 38 39 39 39 39 38 39 38 38 38 38 38 36 34 35 34 35 40 43 42 42 48 47 53 47 51 53 54 65 70
18 20 20 21 21 24 25 28 30 30 31 34 34 37 39 40 41 42 43 44 44 44 44 44 44 45 42 39 39 36 31 27 25 25 29 30 30 34 38 43 49 60 72
17 17 18 18 19 20 21 24 26 27 31 32 35 36 36 37 38 39 41 42 43 45 47 48 50 52 55 56 44 33 27 21 12 16 19 20 27 33 38 36 39 44 52
15 15 14 15 17 18 18 19 23 29 31 32 35 35 36 38 39 41 43 45 48 50 53 52 52 53 52 54 55 49 26 21 12 46 23 31 34 37 40 43 45 50 52
17 15 13 13 15 16 19 24 27 28 30 31 33 33 36 38 39 41 42 45 47 49 52 55 58 60 64 68 65 43 33 24 56 19 47 40 51 49 47 46 48 53 59
20 17 14 12 13 15 19 23 25 25 25 27 31 34 37 37 37 39 41 43 46 48 52 55 57 60 62 61 61 47 24 23 69 30 39 62 65 61 61 58 56 53 53
24 20 15 11 11 12 14 17 21 26 30 33 34 34 33 34 36 38 40 42 44 46 47 50 50 51 51 55 52 48 30 31 26 42 62 58 72 70 70 69 64 63 61
27 23 18 13 10 9 11 15 21 25 28 28 29 30 32 34 36 38 39 41 43 45 47 47 47 47 46 45 47 46 42 40 19 34 58 94 84 81 74 64 73 75 67
33 28 22 17 12 7 7 11 17 22 24 25 26 28 30 33 35 38 40 42 44 45 47 48 47 45 44 42 41 40 42 41 42 31 53 82 91 87 80 77 75 65 80
Wind_Direction_850mb
22 39 45 74 55 27 48 86 107 110 90 39 15 15 10 5 353 310 285 304 310 309 302 297 290 318 323 342 359 10 16 19 22 30 43 63 64 42 43 45 61 71 33
7 14 38 55 9 330 344 347 115 116 109 76 31 343 341 328 311 303 291 283 284 286 286 312 301 295 308 316 344 1 6 10 11 17 28 53 80 130 37 329 18 342 343
354 352 360 28 2 329 330 295 246 223 184 292 23 9 318 308 294 286 286 284 282 280 279 288 307 288 291 296 312 341 354 358 355 355 4 6 337 290 294 298 311 320 312
10 4 344 331 338 320 302 281 305 294 249 235 252 290 291 299 322 309 295 283 281 283 280 276 291 313 283 268 283 305 334 341 339 329 331 332 332 318 303 297 307 316 310
344 350 352 350 326 329 326 320 274 279 303 295 262 267 270 274 275 268 288 306 300 284 281 277 276 291 293 284 267 279 308 318 322 313 306 310 316 318 311 300 303 313 307
329 330 332 328 322 320 324 317 308 275 269 281 291 286 275 266 258 270 279 276 270 286 290 282 271 274 283 278 267 272 291 302 305 305 292 292 301 308 303 298 296 307 301
324 322 319 314 311 308 306 301 297 292 279 265 274 281 282 280 275 268 270 274 277 275 272 271 288 279 265 266 266 272 282 290 294 299 289 283 288 294 299 300 294 296 302
332 325 320 315 308 303 300 299 296 291 286 279 271 266 271 275 279 278 278 276 276 274 274 271 261 268 280 272 267 272 278 284 284 288 289 278 279 283 289 291 288 288 294
339 331 322 317 311 303 297 294 291 289 285 281 278 271 270 267 273 276 279 282 276 276 273 270 266 264 261 265 269 272 277 281 284 284 284 279 272 276 278 283 281 278 285
344 344 341 333 324 313 304 296 290 285 283 283 279 275 269 270 272 274 275 280 283 282 272 267 270 272 269 265 261 262 268 273 275 280 281 284 272 268 274 276 279 281 284
337 339 344 340 334 330 318 308 298 290 286 283 282 280 276 269 267 271 277 278 282 285 285 283 273 267 271 270 269 267 266 268 271 274 277 282 278 267 269 273 276 277 277
351 350 350 353 355 354 352 342 324 311 299 291 287 287 287 283 280 270 270 271 278 281 282 282 279 277 281 276 271 270 268 273 273 275 277 277 277 269 267 269 272 273 275
13 12 9 6 7 8 12 16 12 5 354 340 322 305 300 297 293 288 284 282 279 269 276 277 279 279 280 276 280 284 276 275 281 280 279 277 272 270 267 269 271 273 271
14 20 26 28 26 27 27 27 30 32 32 27 20 8 355 333 315 305 302 299 297 288 279 274 272 278 281 283 280 274 277 277 276 280 283 284 278 269 266 268 273 275 274
38 38 36 40 40 42 41 42 42 42 40 40 37 34 30 24 14 5 352 335 320 313 302 297 288 279 275 278 281 286 279 276 276 276 278 280 277 277 271 268 268 272 276
81 74 60 55 49 44 44 44 45 46 43 41 40 39 36 34 31 27 22 15 6 357 343 325 309 300 294 286 281 281 277 286 282 279 280 276 275 274 274 269 267 270 272
94 84 82 75 65 57 53 49 48 46 43 42 40 38 35 32 31 28 27 25 23 18 11 0 348 334 314 299 294 291 286 280 278 279 287 288 286 288 282 269 269 268 269
97 93 83 77 72 66 62 57 54 51 48 47 44 41 37 33 31 28 27 24 21 15 13 7 2 358 352 342 330 313 301 293 284 282 278 281 288 294 299 294 289 273 277
111 95 86 79 74 67 61 58 56 54 53 51 49 45 42 37 34 30 29 26 21 17 12 10 5 359 356 355 354 347 334 317 297 286 280 280 269 278 277 278 285 289 290
127 114 101 90 80 72 63 57 52 47 48 46 46 45 42 39 36 33 31 27 24 22 20 18 13 9 2 357 355 355 355 349 326 343 321 304 287 282 278 288 282 281 284
140 124 110 98 89 81 74 65 54 43 40 37 38 35 33 32 29 28 26 25 23 22 23 23 21 17 10 6 360 2 17 10 68 335 323 331 319 314 306 302 296 297 289
161 148 131 109 88 74 61 52 46 39 35 32 32 29 28 25 22 21 20 19 18 17 17 16 17 18 18 14 16 9 354 4 338 344 345 345 339 338 330 322 315 305 298
177 167 149 125 99 74 58 49 42 39 37 33 29 25 24 20 18 17 16 16 15 14 14 14 14 12 15 17 18 26 2 338 337 335 349 345 346 342 340 338 334 328 321
187 179 167 144 114 85 65 48 37 31 26 25 23 20 16 13 13 14 14 14 14 14 13 13 12 11 9 11 13 16 18 356 338 321 324 340 344 345 344 341 338 337 335
196 190 181 166 143 105 64 40 30 26 24 21 18 15 11 10 10 10 10 11 11 11 12 11 10 11 10 9 9 5 3 3 347 325 323 331 335 342 344 342 344 339 339
200 196 190 183 169 141 73 38 27 20 16 13 9 8 8 6 5 6 6 6 6 5 6 7 7 6 5 6 4 3 2 357 344 332 318 328 329 334 340 341 345 341 340